Date String (YYYY-MM-DD hh:mm:ss) UTC,Instrument flags,Ambient pressure (hPa),Sample flow (lpm),Bypass flow (lpm),Sample temperature (°C),Ambient temperature (°C),ASC tube jacket temperature (°C),LED temperature (°C),Box temperature (°C),Sample RH (%),Span deviation,Mass concentration (μg/m³),Mass concentration (μg/m³),Mass concentration (μg/m³)
DateTimeUTC,F1_M11,P_M11,Q1_M11,Q2_M11,T1_M11,T2_M11,T3_M11,T4_M11,T5_M11,U1_M11,ZSPAN_M11,X2_M11,X0_M11,X1_M11
2023-02-03 08:00:00,,0832.1,5.03,0.00,22.4,21.1,00.0,31.3,24.2,04.8,0000.0,0000.83,0001.48,0000.53
2023-02-03 08:01:00,,0832.1,5.01,0.00,22.4,21.1,00.0,31.3,24.3,04.6,0000.0,0000.83,0001.48,0000.52
2023-02-03 08:02:00,,0832.1,5.02,0.00,22.4,21.1,00.0,31.3,24.3,04.6,0000.0,0000.86,0001.53,0000.51
2023-02-03 08:03:00,,0832.1,5.03,0.00,22.4,21.1,00.0,31.3,24.3,04.5,0000.0,0000.82,0001.40,0000.50
2023-02-03 08:04:00,,0832.0,5.02,0.00,22.4,21.1,00.0,31.3,24.3,04.8,0000.0,0000.80,0001.33,0000.49
2023-02-03 08:05:00,,0832.0,5.00,0.00,22.4,21.0,00.0,31.3,24.2,04.7,0000.0,0000.79,0001.33,0000.49
2023-02-03 08:06:00,,0832.1,5.00,0.00,22.4,20.9,00.0,31.3,24.2,04.6,0000.0,0000.81,0001.41,0000.49
2023-02-03 08:07:00,,0832.1,5.00,0.00,22.4,20.8,00.0,31.3,24.1,04.6,0000.0,0000.81,0001.43,0000.49
2023-02-03 08:08:00,,0832.1,5.00,0.00,22.3,20.8,00.0,31.3,24.1,04.6,0000.0,0000.77,0001.38,0000.48
2023-02-03 08:09:00,,0832.1,4.99,0.00,22.3,20.7,00.0,31.3,24.1,04.7,0000.0,0000.77,0001.41,0000.47
2023-02-03 08:10:00,,0832.1,5.00,0.00,22.3,20.8,00.0,31.2,24.1,04.7,0000.0,0000.80,0001.50,0000.46
2023-02-03 08:11:00,,0832.1,5.00,0.00,22.3,20.7,00.0,31.2,24.1,04.7,0000.0,0000.79,0001.47,0000.45
2023-02-03 08:12:00,,0832.1,5.00,0.00,22.3,20.6,00.0,31.2,24.0,04.7,0000.0,0000.76,0001.45,0000.44
2023-02-03 08:13:00,,0832.1,5.00,0.00,22.3,20.6,00.0,31.2,24.0,04.8,0000.0,0000.71,0001.41,0000.43
2023-02-03 08:14:00,,0832.1,5.00,0.00,22.3,20.9,00.0,31.2,24.1,04.8,0000.0,0000.72,0001.52,0000.43
2023-02-03 08:15:00,,0832.1,5.01,0.00,22.4,21.8,00.0,31.1,24.3,04.8,0000.0,0000.75,0001.74,0000.42
2023-02-03 08:16:00,,0832.1,5.00,0.00,22.5,22.6,00.0,31.1,24.5,04.9,0000.0,0000.74,0002.24,0000.41
2023-02-03 08:17:00,,0832.1,4.99,0.00,22.6,22.8,00.0,31.2,24.6,05.0,0000.0,0000.71,0002.15,0000.41
2023-02-03 08:18:00,,0831.9,5.00,0.00,22.6,22.4,00.0,31.2,24.6,05.4,0000.0,0000.68,0002.06,0000.40
2023-02-03 08:19:00,,0832.0,5.02,0.00,22.6,22.0,00.0,31.3,24.4,05.0,0000.0,0000.68,0002.06,0000.40
2023-02-03 08:20:00,,0832.0,5.00,0.00,22.5,21.6,00.0,31.3,24.3,04.8,0000.0,0000.69,0002.09,0000.39
2023-02-03 08:21:00,,0832.0,4.98,0.00,22.5,21.3,00.0,31.3,24.3,04.8,0000.0,0000.68,0002.09,0000.38
2023-02-03 08:22:00,,0832.0,4.99,0.00,22.5,21.2,00.0,31.3,24.3,04.9,0000.0,0000.70,0002.13,0000.38
2023-02-03 08:23:00,,0832.0,5.01,0.00,22.5,21.1,00.0,31.3,24.2,05.0,0000.0,0000.70,0002.14,0000.38
2023-02-03 08:24:00,,0832.0,5.00,0.00,22.4,21.1,00.0,31.3,24.2,05.0,0000.0,0000.68,0002.08,0000.37
2023-02-03 08:25:00,,0832.0,5.00,0.00,22.4,21.1,00.0,31.3,24.3,05.2,0000.0,0000.63,0001.88,0000.36
2023-02-03 08:26:00,,0832.0,5.00,0.00,22.4,21.1,00.0,31.3,24.2,05.2,0000.0,0000.59,0001.59,0000.35
2023-02-03 08:27:00,,0832.0,5.00,0.00,22.4,21.0,00.0,31.3,24.2,04.9,0000.0,0000.56,0001.07,0000.34
2023-02-03 08:28:00,,0832.0,5.02,0.00,22.4,20.9,00.0,31.3,24.1,05.1,0000.0,0000.55,0001.07,0000.33
2023-02-03 08:29:00,,0832.0,5.00,0.00,22.4,20.9,00.0,31.3,24.1,05.5,0000.0,0000.58,0001.15,0000.33
2023-02-03 08:30:00,,0831.9,4.99,0.00,22.4,20.9,00.0,31.3,24.1,05.5,0000.0,0000.60,0001.17,0000.33
2023-02-03 08:31:00,,0832.0,5.00,0.00,22.3,20.9,00.0,31.3,24.1,05.5,0000.0,0000.57,0001.09,0000.32
2023-02-03 08:32:00,,0832.0,5.00,0.00,22.3,20.8,00.0,31.3,24.0,05.1,0000.0,0000.55,0001.09,0000.31
2023-02-03 08:33:00,,0832.0,4.99,0.00,22.3,20.6,00.0,31.3,24.0,05.1,0000.0,0000.51,0001.02,0000.31
2023-02-03 08:34:00,,0831.9,4.99,0.00,22.2,20.5,00.0,31.2,23.9,05.2,0000.0,0000.52,0000.97,0000.31
2023-02-03 08:35:00,,0832.0,5.01,0.00,22.2,20.4,00.0,31.2,23.9,05.1,0000.0,0000.58,0001.13,0000.31
2023-02-03 08:36:00,,0832.0,5.02,0.00,22.2,20.4,00.0,31.2,23.8,05.1,0000.0,0000.63,0001.31,0000.30
2023-02-03 08:37:00,,0832.0,5.00,0.00,22.2,20.4,00.0,31.2,23.8,05.2,0000.0,0000.67,0001.48,0000.31
2023-02-03 08:38:00,,0831.9,5.00,0.00,22.1,20.4,00.0,31.2,23.8,05.2,0000.0,0000.69,0001.50,0000.31
2023-02-03 08:39:00,,0831.9,4.99,0.00,22.1,20.4,00.0,31.1,23.8,05.2,0000.0,0000.68,0001.47,0000.31
2023-02-03 08:40:00,,0832.0,4.99,0.00,22.1,20.4,00.0,31.1,23.8,05.2,0000.0,0000.66,0001.43,0000.31
2023-02-03 08:41:00,,0831.9,5.00,0.00,22.1,20.5,00.0,31.1,23.8,05.2,0000.0,0000.64,0001.38,0000.32
2023-02-03 08:42:00,,0832.0,4.98,0.00,22.1,20.5,00.0,31.1,23.8,05.2,0000.0,0000.62,0001.33,0000.32
2023-02-03 08:43:00,,0831.9,4.98,0.00,22.1,20.4,00.0,31.1,23.7,05.1,0000.0,0000.61,0001.35,0000.32
2023-02-03 08:44:00,,0831.9,4.99,0.00,22.0,20.5,00.0,31.1,23.8,05.0,0000.0,0000.65,0001.49,0000.33
2023-02-03 08:45:00,,0831.9,5.00,0.00,22.0,20.5,00.0,31.1,23.8,05.0,0000.0,0000.64,0001.46,0000.33
2023-02-03 08:46:00,,0832.0,5.04,0.00,22.1,20.6,00.0,31.0,23.8,04.9,0000.0,0000.57,0001.25,0000.33
2023-02-03 08:47:00,,0832.0,4.99,0.00,22.0,20.6,00.0,31.0,23.8,04.8,0000.0,0000.53,0001.10,0000.33
2023-02-03 08:48:00,,0832.0,5.00,0.00,22.0,20.6,00.0,31.0,23.8,04.9,0000.0,0000.51,0001.01,0000.33
2023-02-03 08:49:00,,0832.0,5.01,0.00,22.0,20.6,00.0,31.0,23.8,05.0,0000.0,0000.52,0001.04,0000.32
2023-02-03 08:50:00,,0832.0,5.03,0.00,22.0,20.6,00.0,31.0,23.7,04.9,0000.0,0000.54,0001.22,0000.32
2023-02-03 08:51:00,,0832.0,5.01,0.00,22.0,20.6,00.0,31.0,23.8,04.9,0000.0,0000.57,0001.39,0000.32
2023-02-03 08:52:00,,0832.0,4.99,0.00,22.0,20.6,00.0,31.0,23.8,05.0,0000.0,0000.60,0001.45,0000.32
2023-02-03 08:53:00,,0832.0,5.00,0.00,22.0,20.8,00.0,31.0,23.8,05.0,0000.0,0000.64,0001.57,0000.32
2023-02-03 08:54:00,,0832.0,5.01,0.00,22.1,21.6,00.0,30.9,24.1,04.9,0000.0,0000.64,0001.60,0000.32
2023-02-03 08:55:00,,0831.9,5.01,0.00,22.3,22.6,00.0,30.9,24.3,04.8,0000.0,0000.63,0001.54,0000.32
2023-02-03 08:56:00,,0831.8,4.99,0.00,22.4,22.7,00.0,31.0,24.4,04.8,0000.0,0000.64,0001.59,0000.32
2023-02-03 08:57:00,,0831.8,4.99,0.00,22.4,22.3,00.0,31.0,24.4,04.8,0000.0,0000.71,0001.83,0000.32
2023-02-03 08:58:00,,0831.8,5.00,0.00,22.4,22.0,00.0,31.1,24.3,04.8,0000.0,0000.74,0001.95,0000.33
2023-02-03 08:59:00,,0831.8,5.00,0.00,22.4,21.8,00.0,31.1,24.3,04.8,0000.0,0000.74,0002.13,0000.33
